Location: Salisbury
(38.3600°N, 75.6000°W)
Time: 16:16:04
(UTC-05:00)

Daily predictions for brighter satellites

Satellite Brightness Start Highest point End
(mag) Time Altitude Azimuth Time Altitude Azimuth Time Altitude Azimuth
SL-8 R/B 4.5 17:04:15 10° W 17:08:47 42° NNW 17:13:20 10° NE
EP 1 4.2 17:10:26 10° SSW 17:13:06 64° ESE 17:15:39 10° NE
SMAP 3.2 17:09:38 10° SSE 17:14:06 50° ENE 17:18:36 10° N
Cosmos 1346 Rocket 3.2 17:11:01 10° SSE 17:14:41 40° E 17:18:20 10° NNE
Cosmos 1455 Rocket 3.1 17:15:12 10° N 17:19:39 88° E 17:24:05 10° S
Genesis I 3.1 17:16:57 10° NNW 17:20:51 68° ENE 17:24:44 10° SE
NOSS 2-1 (D) 3.8 17:18:16 10° S 17:21:51 41° ESE 17:25:43 10° NE
NOSS 2-1 (C) 3.8 17:18:56 10° S 17:22:32 41° ESE 17:26:26 10° NE
Delta 2 Rocket 3.6 17:21:07 10° WSW 17:24:35 51° S 17:28:24 10° E
Cosmos 1833 Rocket 3.3 17:20:06 10° N 17:25:13 34° ENE 17:30:17 10° SE
IDEFIX/ARIANE 42P 2.5 17:25:55 10° SSE 17:31:05 77° ENE 17:36:17 10° N
Cosmos 2082 Rocket 2.5 17:26:58 10° N 17:32:24 46° ENE 17:37:50 10° SE
Thor Agena Rocket 3.7 17:31:49 10° NNE 17:37:05 84° WNW 17:42:21 10° SSW
Tiangong 1 1.6 17:37:35 10° W 17:40:31 44° NNW 17:42:20 19° NE
Cosmos 1500 3.1 17:36:56 10° N 17:40:47 81° E 17:44:38 10° S
Cosmos 1743 3.3 17:37:17 10° N 17:40:53 35° ENE 17:44:25 10° SE
NOSS 2-1 (E) 3.4 17:37:22 10° SSW 17:41:10 62° ESE 17:44:42 14° NE
TIMED 4.5 17:36:50 10° SSW 17:41:12 83° ESE 17:45:35 10° NNE
Okean 1-7 Rocket 3.9 17:37:04 10° SSE 17:41:22 47° E 17:45:40 10° NNE
ASTRO F (AKARI) 4.2 17:39:06 10° NNE 17:42:13 63° ESE 17:45:22 10° S
Meteor 1-19 Rocket 4.4 17:39:55 10° SSE 17:45:31 53° E 17:51:11 10° NNE
Meteor 1-28 Rocket 4.4 17:46:16 19° ENE 17:47:37 23° E 17:50:40 10° SSE
Cosmos 1484 Rocket 2.8 17:49:33 10° SSE 17:53:10 49° ENE 17:56:47 10° N
USA 234 3.7 17:53:20 12° NE 17:59:24 58° NW 18:05:46 10° WSW
Meteor 2-21 4.5 17:53:58 10° N 18:00:09 86° W 18:06:16 10° S
Cosmos 1975 4.1 17:56:44 10° NNW 18:00:35 43° W 18:04:24 10° SSW
CZ-4 R/B 3.6 18:02:00 10° SSW 18:05:40 30° W 18:09:19 10° NW
Cosmos 1606 Rocket 4.1 18:03:11 10° N 18:07:20 36° ENE 18:11:28 10° SE
Meteor 1-13 Rocket 4.4 18:02:11 10° SSW 18:07:51 80° W 18:13:42 10° N
MSX 4.0 18:02:48 10° S 18:08:32 75° WSW 18:14:18 10° NNW
Meteor 1-23 Rocket 4.3 18:04:00 10° SSE 18:09:30 52° E 18:14:52 10° NNE
Cosmos 2369 Rocket 3.6 18:05:47 10° SE 18:08:54 19° ESE 18:08:54 19° ESE
Meteor 2-9 Rocket 4.3 18:05:19 10° N 18:10:32 47° ENE 18:15:37 10° SSE
Cosmos 2239 Rocket 4.4 18:04:34 10° N 18:10:44 67° E 18:16:50 10° SSE
Meteor 2-4 Rocket 3.5 18:08:21 10° S 18:13:39 65° E 18:18:57 10° NNE
CZ-2C R/B 4.0 18:09:11 10° SSW 18:13:50 39° W 18:18:38 10° NNW
COSMO-SKYMED 1 2.5 18:10:12 10° NNE 18:14:34 87° WNW 18:18:54 10° SSW
Abrixas 2.3 18:11:39 10° WNW 18:14:37 89° SW 18:15:00 65° SE
NOSS 3-4 (A) 3.9 18:08:39 10° NNW 18:15:31 53° NE 18:22:46 10° SE
NOSS 3-4 (C) 3.9 18:08:45 10° NNW 18:15:37 53° NE 18:22:52 10° SE
Meteor 2-14 Rocket 4.5 18:12:04 10° N 18:18:15 84° W 18:24:22 10° S
CZ-3B DEB 3.8 18:15:28 10° WNW 18:19:45 31° N 18:25:57 17° NE
Cosmos 2056 Rocket 3.4 18:15:07 10° S 18:20:27 71° ESE 18:23:51 23° NNE
Cosmos 407 Rocket 3.9 18:16:58 10° N 18:21:44 37° ENE 18:21:59 37° ENE
Cosmos 1821 Rocket 3.8 18:16:37 10° N 18:22:43 79° E 18:28:49 10° S
Cosmos 1025 Rocket 3.0 18:20:14 10° S 18:24:36 87° W 18:28:12 15° N
NOAA 12 4.1 18:19:30 10° SSE 18:24:39 56° ENE 18:29:47 10° N
Cosmos 921 Rocket 4.2 18:20:39 10° SW 18:24:39 40° WNW 18:28:46 10° N
Cosmos 1605 Rocket 4.0 18:27:18 10° N 18:33:26 53° E 18:39:26 10° SSE
Cosmos 1624 Rocket 4.0 18:28:18 10° SSW 18:33:29 80° WNW 18:36:48 23° NNE
Cosmos 1340 4.1 18:33:07 10° S 18:34:57 26° SSE 18:34:57 26° SSE
METEOR-M 4.0 18:42:21 10° SSE 18:47:40 78° ENE 18:53:01 10° N
Cosmos 1666 3.7 18:51:21 10° NNW 18:55:05 46° W 18:58:48 10° SSW
GEOS 3 Rocket 3.7 19:00:07 59° N 19:00:07 59° N 19:04:27 10° NNW
Cosmos 1833 Rocket 4.4 19:04:07 10° NW 19:09:01 31° WSW 19:13:54 10° SSW
Cosmos 1727 Rocket 3.8 19:02:53 10° S 19:09:08 90° NW 19:10:52 51° N
Cosmos 1452 Rocket 3.9 19:04:13 10° SSW 19:08:13 54° S 19:08:13 54° S
Cosmos 1190 Rocket 4.4 19:07:26 10° NNW 19:12:35 60° WSW 19:15:37 24° S
Cosmos 2082 Rocket 4.5 19:11:47 10° NW 19:16:08 23° W 19:20:29 10° SSW
FALCON 9 R/B 3.0 19:05:04 10° W 19:23:37 69° S 19:24:36 62° SSE
Cosmos 2369 Rocket 3.7 19:47:40 10° SW 19:50:46 32° SW 19:50:46 32° SW
ATLAS 3B CENTAUR R/B 4.4 20:12:53 10° W 20:23:21 29° SW 20:23:21 29° SW
